sat.trackr.live / text

‹ back to catalog

ONEWEB-0295

NORAD 49084 · 2021-075K

PAYLOAD ACTIVE UNKNOWN

§ Identity

Operator
Country
UK
Launch date
2021-08-21
Launch site
TYMSC
Launch vehicle
Mass (kg)
RCS (m²)

Purposes: comms

External: N2YO · Heavens-Above · Gunter

§ Orbital elements

Epoch: 2026-09-20T04:24:48.343968Z

Period
109.29 min
Inclination
87.9201°
Eccentricity
0.0001840
Mean motion
13.17650680 rev/d
Perigee alt
1,192.3 km
Apogee alt
1,195.1 km
Semi-major
7,571.8 km
B*
5.1674e-5
RAAN
347.0053°
Arg perigee
110.6754°
Mean anomaly
249.4574°
Rev number
24,610

§ Raw data

ONEWEB-02951 49084U 21075K   26263.18389287  .00000033  00000+0  51674-4 0  99972 49084  87.9201 347.0053 0001840 110.6754 249.4574 13.17650680246108

JSON: /api/v1/satellites/49084 · /tle

For live sub-satellite position, see the globe view (requires WebGL).

§ Visibility from observer

Set your observer location to see the next 7 days of passes ≥ 10°. The values pass through the URL so the page stays shareable.

No JS? Fill the form by hand. The geolocation button needs JavaScript.